Wind_Speed
21 21 20 19 19 18 19 20 20 19 18 18 18 18 17 15 14 14 14 13 12 12 14 12 10 9 8 8 8 8 7 7 6 5 4 3 3 3 2 3 4 5
21 20 20 20 19 18 19 20 20 20 19 19 18 18 17 16 16 15 14 14 13 13 13 12 11 11 10 9 9 8 8 8 7 6 5 4 4 4 4 4 4 4
21 19 19 20 20 20 19 19 19 19 19 19 19 18 17 17 17 16 14 13 13 13 12 12 12 11 11 11 10 9 9 9 7 7 6 5 6 5 5 5 5 4
23 21 19 19 20 20 20 20 19 19 19 20 19 18 18 17 17 16 15 14 13 13 13 13 12 12 12 12 11 11 10 9 8 8 8 8 8 7 6 6 6 5
24 22 20 19 20 20 21 20 20 20 21 21 20 19 19 18 18 17 16 15 15 14 15 15 15 14 13 13 13 13 12 11 9 9 9 9 8 8 7 7 6 5
24 23 21 20 20 21 20 20 20 20 21 21 20 19 18 19 19 18 17 17 16 16 16 17 17 16 15 13 13 14 13 12 10 9 10 9 7 7 7 7 7 6
24 23 22 20 20 20 20 20 20 20 20 20 20 19 18 18 19 18 18 17 17 16 17 17 17 16 15 13 13 13 14 13 11 10 11 10 8 7 7 7 8 8
24 23 22 21 20 20 20 19 19 19 18 19 19 19 18 18 18 18 18 18 17 16 17 16 16 15 15 14 13 12 13 13 12 11 11 11 10 9 8 7 8 9
24 23 23 23 22 21 21 20 19 18 17 18 18 18 18 18 17 17 18 18 18 17 18 17 17 16 15 15 14 13 13 12 12 11 11 12 12 10 9 9 8 9
25 24 24 25 24 24 22 21 19 19 18 18 18 18 18 18 18 18 18 19 19 18 18 19 18 17 17 16 15 14 14 13 12 11 11 12 12 11 9 8 8 9
26 25 24 25 25 25 24 22 21 20 20 19 19 19 19 18 18 19 19 19 20 19 19 18 18 18 18 17 16 15 14 13 12 12 12 12 12 11 9 8 9 10
27 26 25 24 25 25 24 23 22 21 21 20 20 20 19 19 19 19 19 20 20 20 19 18 17 17 17 17 16 16 16 15 14 13 13 12 12 12 11 11 11 11
28 27 26 24 25 25 24 23 21 21 21 21 20 21 21 20 20 20 20 20 20 19 19 18 17 17 16 16 17 17 17 17 15 15 14 14 14 13 13 12 12 12
29 28 27 25 25 26 25 25 23 22 22 21 21 22 23 22 22 21 21 21 20 20 19 19 19 19 18 18 17 18 18 18 17 16 15 15 14 14 14 13 13 13
30 29 28 26 26 26 26 26 25 24 23 23 22 23 23 23 23 23 23 23 22 21 21 20 21 21 20 19 18 17 18 18 18 17 17 16 14 14 14 14 14 15
29 30 30 29 27 27 26 25 25 24 24 23 24 24 24 24 24 24 24 24 24 23 22 23 22 22 21 20 18 18 18 18 19 18 18 17 16 15 15 14 14 15
29 29 29 29 28 27 26 25 24 24 23 23 24 24 25 25 25 25 25 24 25 24 24 24 23 22 22 22 21 20 20 20 20 19 19 18 18 17 16 14 12 12
31 31 30 29 29 28 27 25 25 24 24 24 25 25 25 26 26 26 26 25 26 25 24 24 23 22 23 23 22 21 21 21 22 21 21 20 19 19 18 16 13 12
30 29 30 29 28 27 26 25 26 26 26 27 27 26 26 27 28 28 27 26 26 26 25 24 24 23 24 24 24 22 21 22 23 23 22 21 20 19 18 18 16 15
29 28 27 26 24 24 23 22 22 22 23 25 26 25 25 27 28 29 28 27 27 26 26 26 25 24 25 25 24 23 22 22 23 23 23 23 22 21 20 18 18 18
21 25 26 24 22 21 20 19 18 18 19 20 21 22 24 25 26 28 28 28 27 27 27 27 26 25 25 24 24 24 23 23 23 23 23 22 22 21 20 18 18 18
19 23 26 26 24 22 21 19 18 18 18 18 18 19 20 22 23 25 26 26 27 27 27 27 27 26 25 24 24 24 24 23 23 22 21 20 20 19 19 19 19 18
23 24 26 27 26 26 24 20 18 17 17 17 16 16 15 15 15 18 21 24 25 26 26 26 25 24 23 22 21 21 21 21 19 18 17 18 18 18 19 19 18 17
19 20 22 24 26 25 22 17 12 11 12 13 13 14 14 12 9 9 12 16 19 19 19 19 19 19 19 18 17 17 17 17 16 15 16 17 18 18 17 16 15 14
16 17 18 20 22 20 16 11 9 9 10 10 11 12 14 14 13 12 12 10 10 11 11 12 12 13 14 14 15 15 15 16 16 16 17 18 17 16 15 14 13 12
19 19 19 19 17 14 11 12 14 14 12 11 10 11 11 12 13 14 13 11 11 11 11 10 10 11 12 13 15 15 16 16 16 17 17 16 15 14 15 14 13 11
Wind_Direction
217 215 215 216 217 219 220 220 219 223 227 222 215 216 220 226 226 227 235 240 239 231 226 228 232 231 235 238 242 254 259 260 262 261 264 269 275 282 294 326 357 5
212 215 218 219 220 222 224 224 224 226 227 222 219 220 224 229 230 232 238 240 237 228 226 233 236 234 238 242 245 254 257 256 258 263 267 271 274 282 291 302 320 341
214 218 222 224 225 225 225 226 226 228 227 223 223 226 229 231 232 234 238 239 234 225 226 237 238 236 241 246 250 256 255 254 259 263 264 267 274 284 296 300 300 309
219 222 225 227 227 226 225 224 225 226 225 225 228 231 232 233 232 233 237 237 231 226 229 236 238 238 243 248 254 258 258 255 258 264 265 266 274 284 295 296 290 287
223 225 227 227 227 226 225 226 228 227 226 228 232 234 235 234 232 233 236 235 233 235 236 237 240 241 245 252 258 259 258 254 255 263 267 268 274 282 290 293 284 276
224 225 226 227 226 225 226 229 231 231 230 232 234 236 236 234 233 234 235 234 238 244 241 237 240 242 246 253 258 255 250 249 255 261 263 266 273 278 285 292 288 282
222 223 225 226 225 225 228 231 233 233 234 235 236 236 234 232 233 234 233 235 241 244 238 235 240 243 245 251 254 248 243 246 252 258 259 262 271 276 277 283 283 280
220 221 223 224 224 225 229 231 232 232 234 235 235 233 231 230 232 233 233 236 240 239 235 236 242 244 244 249 249 244 243 246 251 255 257 259 266 275 278 280 278 273
220 222 223 224 225 227 229 230 230 231 232 233 233 232 230 231 234 235 234 237 238 237 237 239 244 245 243 247 248 245 245 249 252 256 257 258 264 273 282 283 278 276
221 224 224 224 225 228 230 231 232 233 233 233 233 233 233 234 238 238 237 236 237 238 241 242 245 244 242 245 249 248 249 250 252 257 259 259 261 267 276 279 275 276
221 224 225 226 227 228 230 231 234 237 236 235 235 234 235 236 238 239 236 235 237 239 241 243 245 245 243 244 247 248 249 250 253 256 260 261 259 258 264 271 273 274
220 222 225 227 227 227 229 231 235 239 238 236 235 233 234 235 237 238 236 235 238 241 241 243 243 242 241 242 245 248 249 251 254 258 260 261 259 257 261 265 268 273
218 221 224 226 228 227 229 231 235 238 237 237 237 235 234 237 238 238 237 236 240 242 242 242 241 239 239 242 247 250 250 250 253 257 262 265 264 263 263 261 264 271
218 220 223 225 228 229 230 232 234 236 238 240 242 239 238 240 241 241 240 238 238 240 241 242 241 240 240 243 246 247 247 248 250 253 259 266 267 264 261 259 262 266
219 220 223 225 228 230 232 232 234 236 240 243 243 241 240 242 244 243 241 240 239 239 241 242 244 243 242 243 244 243 244 246 247 249 254 260 264 261 260 262 263 265
219 221 223 226 229 232 231 231 233 235 239 242 241 240 241 243 244 242 241 241 241 240 242 243 245 245 243 243 243 244 245 246 245 246 249 254 259 261 263 265 264 264
219 221 222 225 229 231 231 231 233 235 238 242 243 243 245 246 245 242 241 242 242 242 243 243 245 244 241 240 241 242 245 245 244 245 248 252 256 258 261 264 262 256
219 220 221 224 227 228 229 233 236 237 239 243 246 247 249 248 247 245 244 244 244 244 243 242 242 241 238 237 240 242 244 246 246 247 249 251 254 256 259 261 257 245
219 219 219 221 222 223 226 231 236 240 242 245 248 250 250 249 247 246 247 246 244 243 243 242 241 240 238 238 242 245 246 246 247 248 249 251 253 254 256 258 253 243
217 218 219 219 218 219 223 227 231 237 239 241 243 245 246 247 245 245 245 244 242 242 242 243 241 239 239 240 244 246 246 246 247 249 252 253 254 255 257 254 245 238
220 218 217 216 216 216 219 220 222 226 229 232 235 236 238 241 242 243 243 240 238 239 240 241 241 241 241 242 244 245 245 246 249 251 254 255 255 255 253 247 237 235
227 223 217 213 211 212 215 215 216 218 221 224 227 229 232 234 236 238 238 236 235 235 237 238 238 239 240 241 242 244 245 247 250 252 253 253 251 247 241 236 233 235
222 224 220 213 210 212 214 213 212 213 215 217 219 219 221 225 231 233 232 230 231 232 233 234 234 234 236 237 238 240 242 244 246 246 243 241 238 234 232 232 234 237
217 221 222 215 209 209 208 203 201 207 214 218 219 217 214 212 223 244 241 229 224 227 228 227 228 230 231 233 234 235 236 236 237 237 233 231 228 225 226 229 231 235
222 227 230 222 211 204 197 191 200 223 233 231 228 228 227 223 224 242 257 244 223 221 224 226 231 234 235 237 235 234 234 233 232 232 231 226 221 216 217 220 223 229
235 233 233 229 219 209 203 202 208 220 232 236 234 234 236 230 217 219 231 231 222 224 230 237 245 249 248 247 244 241 240 235 230 229 228 221 211 212 216 214 215 222
Height
849 850 851 852 854 855 856 857 858 859 861 862 862 863 864 865 866 867 867 868 868 869 869 870 870 870 871 871 871 871 871 871 871 871 870 870 870 869 869 869 869 869
848 849 850 851 853 854 855 856 857 858 859 861 862 862 863 864 865 866 867 867 868 868 869 870 870 870 870 870 870 870 870 870 870 870 870 869 869 869 869 869 869 868
847 848 849 850 851 853 854 855 856 857 858 860 861 862 863 864 865 865 866 867 867 868 868 869 869 869 870 870 870 870 870 870 870 869 869 869 869 869 868 868 868 868
846 847 848 849 851 852 853 854 855 856 858 859 860 861 862 863 864 864 865 866 866 867 868 868 869 869 869 869 869 869 869 869 869 869 869 869 868 868 868 868 868 867
845 846 847 849 850 851 852 853 854 855 856 858 859 860 861 862 863 863 864 865 865 866 867 867 867 868 868 868 868 868 869 869 869 869 868 868 868 868 868 867 867 867
844 845 846 848 849 850 851 852 853 854 855 856 858 859 860 860 861 862 863 864 864 865 865 866 866 866 867 867 867 867 868 868 868 868 868 868 868 868 868 867 867 866
842 844 845 847 848 849 850 851 852 853 854 855 856 857 858 859 860 861 862 863 863 864 864 865 865 865 866 866 866 866 866 867 867 868 868 867 868 867 867 867 866 866
841 842 844 845 846 847 848 849 850 851 852 853 854 856 857 857 858 859 860 861 862 862 863 863 864 864 865 865 865 865 865 866 866 867 867 867 867 866 866 866 866 865
839 841 842 843 845 846 847 848 849 850 851 852 852 854 855 856 857 857 858 859 860 860 861 862 862 863 863 864 864 864 864 865 865 865 865 865 865 865 865 865 865 864
838 839 840 842 843 844 845 846 847 848 849 850 851 852 853 854 855 855 856 857 858 858 859 860 861 861 862 862 863 863 863 863 864 864 864 864 864 864 864 864 863 863
836 837 838 839 841 842 843 845 846 847 848 848 849 850 851 852 853 853 854 855 856 856 857 858 859 860 860 861 861 862 862 862 862 863 863 862 862 862 862 862 862 862
833 835 836 837 839 840 842 843 844 845 846 847 847 848 849 850 851 851 852 853 854 854 855 856 857 858 859 859 860 860 861 861 861 861 861 861 861 861 861 861 861 861
831 832 834 835 837 838 840 841 842 843 844 845 846 847 848 848 849 850 850 851 852 853 854 855 855 856 857 857 858 858 859 859 860 860 860 860 860 860 860 860 860 860
828 830 831 833 835 836 837 839 840 841 842 843 845 845 846 847 847 848 849 850 850 851 852 853 853 854 855 855 856 856 857 857 858 859 859 859 859 859 859 859 858 858
826 828 830 831 833 834 835 837 838 839 840 841 843 844 845 845 846 847 847 848 848 849 850 851 851 852 853 853 854 854 855 856 856 857 857 858 858 858 858 857 857 857
825 827 828 830 831 832 833 834 836 837 838 839 840 841 842 843 844 845 845 846 847 847 848 849 849 850 851 852 853 853 854 854 855 855 856 856 856 856 856 856 856 856
823 825 827 828 830 831 832 833 834 835 836 837 838 839 840 841 842 843 844 844 845 846 847 847 848 848 849 850 851 851 852 852 853 854 854 854 854 854 855 855 855 854
822 823 825 826 827 829 830 831 833 834 834 836 836 837 838 839 840 841 842 843 843 844 845 845 846 846 847 848 849 849 850 851 851 852 852 852 853 853 853 853 853 853
821 822 823 824 825 827 828 829 831 832 833 834 834 835 836 837 838 839 840 841 842 842 843 843 844 844 845 846 846 847 848 848 849 850 850 850 850 851 851 851 852 852
820 821 822 823 824 825 827 827 828 829 830 831 832 833 834 834 835 836 837 838 839 840 841 841 842 842 843 843 844 845 846 846 847 847 848 848 848 848 849 849 849 849
822 821 821 822 823 824 825 826 826 827 828 829 830 831 832 832 833 834 835 836 837 838 838 839 840 840 841 841 842 842 843 844 845 845 845 845 845 846 846 846 847 847
822 821 820 820 821 822 823 824 824 825 826 827 828 829 830 831 832 833 833 834 835 835 836 837 838 838 839 839 840 840 841 842 842 843 843 843 843 843 844 844 844 845
819 819 819 818 818 819 820 821 822 824 825 826 827 828 830 831 833 833 833 833 834 834 834 835 836 837 837 838 838 838 839 839 840 840 840 841 841 841 842 842 843 843
817 818 819 818 817 817 818 820 821 823 825 826 827 828 829 830 832 835 835 834 833 834 834 835 835 836 836 837 837 837 837 837 838 838 838 839 839 840 840 841 841 842
816 817 820 820 817 815 816 818 821 824 825 825 826 827 828 829 831 834 837 836 835 835 835 835 836 836 836 836 836 836 836 836 836 836 836 837 837 838 839 839 840 840
815 817 819 819 816 814 815 817 819 821 823 823 824 826 827 828 829 831 834 835 835 835 835 836 836 836 836 836 836 836 836 835 834 834 834 835 837 838 837 837 838 838